TimeMDT,TemperatureF,Dew PointF,Humidity,Sea Level PressureIn,VisibilityMPH,Wind Direction,Wind SpeedMPH,Gust SpeedMPH,PrecipitationIn,Events,Conditions,WindDirDegrees,DateUTC
12:53 AM,71.1,50.0,47,29.74,10.0,SSE,5.8,-,N/A,,Clear,150,2013-07-05 06:53:00
1:53 AM,69.1,50.0,51,29.74,10.0,Calm,Calm,-,N/A,,Clear,0,2013-07-05 07:53:00
2:53 AM,66.0,50.0,56,29.74,10.0,SW,3.5,-,N/A,,Clear,220,2013-07-05 08:53:00
3:53 AM,66.0,50.0,56,29.74,10.0,Calm,Calm,-,N/A,,Clear,0,2013-07-05 09:53:00
4:53 AM,64.0,46.0,52,29.74,10.0,Calm,Calm,-,N/A,,Clear,0,2013-07-05 10:53:00
5:53 AM,63.0,43.0,48,29.75,10.0,Calm,Calm,-,N/A,,Clear,0,2013-07-05 11:53:00
6:53 AM,60.1,42.1,51,29.76,10.0,South,3.5,-,N/A,,Clear,190,2013-07-05 12:53:00
7:53 AM,64.9,42.1,43,29.78,10.0,Calm,Calm,-,N/A,,Clear,0,2013-07-05 13:53:00
8:53 AM,68.0,44.1,42,29.78,10.0,Calm,Calm,-,N/A,,Clear,0,2013-07-05 14:53:00
9:53 AM,72.0,44.1,37,29.78,10.0,West,3.5,-,N/A,,Clear,270,2013-07-05 15:53:00
10:53 AM,75.9,44.1,32,29.75,10.0,West,6.9,-,N/A,,Clear,280,2013-07-05 16:53:00
11:53 AM,80.1,45.0,29,29.75,10.0,West,9.2,-,N/A,,Partly Cloudy,280,2013-07-05 17:53:00
12:53 PM,80.1,43.0,27,29.75,8.0,WNW,6.9,-,N/A,,Partly Cloudy,290,2013-07-05 18:53:00
1:53 PM,84.0,41.0,22,29.73,10.0,North,4.6,-,N/A,,Clear,360,2013-07-05 19:53:00
2:53 PM,89.1,39.0,17,29.70,10.0,North,12.7,18.4,N/A,,Clear,350,2013-07-05 20:53:00
3:53 PM,89.1,37.0,16,29.68,10.0,WNW,9.2,-,N/A,,Clear,290,2013-07-05 21:53:00
4:53 PM,91.0,37.9,15,29.66,10.0,NNW,13.8,18.4,N/A,,Clear,330,2013-07-05 22:53:00
5:53 PM,91.0,37.9,15,29.65,10.0,NNW,11.5,19.6,N/A,,Clear,330,2013-07-05 23:53:00
6:53 PM,91.0,35.1,14,29.64,10.0,NNW,13.8,-,N/A,,Clear,340,2013-07-06 00:53:00
7:53 PM,89.1,34.0,14,29.63,10.0,NW,11.5,19.6,N/A,,Clear,320,2013-07-06 01:53:00
8:53 PM,87.1,36.0,16,29.64,10.0,WNW,10.4,-,N/A,,Clear,300,2013-07-06 02:53:00
9:53 PM,82.0,36.0,19,29.66,10.0,WNW,10.4,-,N/A,,Clear,300,2013-07-06 03:53:00
10:53 PM,78.1,36.0,22,29.70,10.0,NW,9.2,-,N/A,,Clear,310,2013-07-06 04:53:00
11:53 PM,75.0,33.1,22,29.71,10.0,NW,8.1,-,N/A,,Clear,310,2013-07-06 05:53:00